Weather History for KBBW - October, 2011

Change the Weather History Date:

Friday, October 28, 2011

  Actual Average Record
Temperature  
Mean Temperature 39 °F 45 °F  
Max Temperature 55 °F 58 °F 89 °F (1915)
Min Temperature 23 °F 32 °F -1 °F (1925)
Degree Days  
Heating Degree Days 26 20  
Month to date heating degree days 383 425  
Cooling Degree Days 0 0  
Month to date cooling degree days 8 2  
Year to date cooling degree days 755 764  
Moisture  
Dew Point 23 °F    
Average Humidity 58    
Maximum Humidity 88    
Minimum Humidity 28    
Precipitation  
Precipitation 0.00 in 0.05 in 0.25 in (1940)
Sea Level Pressure  
Sea Level Pressure 30.23 in    
Wind  
Wind Speed 5 mph (NW)    
Max Wind Speed 16 mph    
Max Gust Speed 24 mph    
Visibility 10 miles    
Events      
T = Trace of Precipitation, MM = Missing Value Source: NWS Daily Summary

Daily Weather History Graph

Daily Weather History Graph

Search for Another Location

Airport or City:

Trip Planner

Search our weather history database for the weather conditions in past years. The results will help you decide how hot, cold, wet, or windy it might be!

Date:

Astronomy

Oct. 28, 2011 Rise Set
Actual Time 8:05 AM CDT 6:38 PM CDT
Civil Twilight 7:36 AM CDT 7:07 PM CDT
Nautical Twilight 7:04 AM CDT 7:39 PM CDT
Astronomical Twilight 6:31 AM CDT 8:12 PM CDT
Moon 10:24 AM CDT (10/28) 8:01 PM CDT (10/28)
Length of Visible Light 11h 30m
Length of Day
10h 33m
Waxing Crescent, 5% of the Moon is Illuminated
Oct 28
Waxing Crescent
Nov 2
First Quarter
Nov 10
Full
Nov 18
Last Quarter
Nov 25
New

Hourly Weather History & Observations

Time (CDT) Temp. Windchill Dew Point Humidity Pressure Visibility Wind Dir Wind Speed Gust Speed Precip Events Conditions
12:53 AM 35.1 °F - 25.0 °F 67% 30.15 in 10.0 mi Calm Calm - N/A   Clear
1:53 AM 26.1 °F - 21.9 °F 84% 30.17 in 10.0 mi Calm Calm - N/A   Clear
2:53 AM 23.0 °F - 19.9 °F 88% 30.19 in 10.0 mi Calm Calm - N/A   Clear
3:53 AM 33.1 °F 26.9 °F 21.0 °F 61% 30.19 in 10.0 mi NW 6.9 mph - N/A   Clear
4:53 AM 35.1 °F 27.4 °F 21.0 °F 57% 30.20 in 10.0 mi NW 10.4 mph - N/A   Clear
5:53 AM 28.9 °F - 21.0 °F 72% 30.23 in 10.0 mi Calm Calm - N/A   Clear
6:53 AM 28.9 °F - 21.0 °F 72% 30.24 in 10.0 mi Calm Calm - N/A   Clear
7:53 AM 28.9 °F - 21.0 °F 72% 30.28 in 10.0 mi Calm Calm - N/A   Clear
8:53 AM 30.0 °F 25.2 °F 24.1 °F 79% 30.31 in 10.0 mi SSW 4.6 mph - N/A   Clear
9:53 AM 37.9 °F 34.4 °F 28.0 °F 68% 30.31 in 10.0 mi SW 4.6 mph - N/A   Overcast
10:53 AM 45.0 °F 39.7 °F 27.0 °F 49% 30.30 in 10.0 mi NNW 10.4 mph - N/A   Clear
11:53 AM 48.9 °F - 28.9 °F 46% 30.28 in 10.0 mi WNW 6.9 mph - N/A   Clear
12:53 PM 51.1 °F - 27.0 °F 39% 30.27 in 10.0 mi NW 9.2 mph - N/A   Clear
1:53 PM 53.1 °F - 23.0 °F 31% 30.26 in 10.0 mi NNW 12.7 mph 19.6 mph N/A   Clear
2:53 PM 54.0 °F - 23.0 °F 30% 30.24 in 10.0 mi NNW 12.7 mph 17.3 mph N/A   Clear
3:53 PM 54.0 °F - 23.0 °F 30% 30.21 in 10.0 mi NW 11.5 mph - N/A   Overcast
4:53 PM 54.0 °F - 21.0 °F 28% 30.19 in 10.0 mi WNW 9.2 mph 23.0 mph N/A   Mostly Cloudy
5:53 PM 52.0 °F - 21.9 °F 31% 30.20 in 10.0 mi North 5.8 mph - N/A   Scattered Clouds
6:53 PM 43.0 °F 41.3 °F 21.0 °F 42% 30.22 in 10.0 mi North 3.5 mph - N/A   Clear
7:53 PM 32.0 °F - 23.0 °F 69% 30.25 in 10.0 mi Calm Calm - N/A   Clear
8:53 PM 28.9 °F 25.2 °F 21.9 °F 75% 30.25 in 7.0 mi North 3.5 mph - N/A   Clear
9:53 PM 27.0 °F - 21.9 °F 81% 30.22 in 10.0 mi Calm Calm - N/A   Clear
10:53 PM 28.0 °F - 23.0 °F 81% 30.20 in 10.0 mi Calm Calm - N/A   Clear
11:53 PM 28.0 °F - 23.0 °F 81% 30.17 in 10.0 mi Calm Calm - N/A   Clear